Weather History for Greenwood, SC

Change the Weather History Date:

Thursday, January 10, 2013

  Actual Average (KAND) Record (KAND)
Temperature  
Mean Temperature 59 °F -  
Max Temperature 72 °F 47 °F 79 °F (1949)
Min Temperature 46 °F 31 °F 4 °F (1970)
Degree Days  
Heating Degree Days 6    
Growing Degree Days 9 (Base 50)    
Moisture  
Dew Point 51 °F    
Average Humidity 77    
Maximum Humidity 97    
Minimum Humidity 49    
Precipitation  
Precipitation 0.01 in - - ()
Sea Level Pressure  
Sea Level Pressure 30.41 in    
Wind  
Wind Speed 3 mph (East)    
Max Wind Speed 9 mph    
Max Gust Speed 16 mph    
Visibility 8 miles    
Events Rain    
Averages and records for this station are not official NWS values.
T = Trace of Precipitation, MM = Missing Value Source: NWS Daily Summary

Daily Weather History Graph

Daily Weather History Graph

Search for Another Location

Airport:

Trip Planner

Search our weather history database for the weather conditions in past years. The results will help you decide how hot, cold, wet, or windy it might be!

Date:

Astronomy

Jan. 10, 2013 Rise Set
Actual Time 7:35 AM EST 5:37 PM EST
Civil Twilight 7:07 AM EST 6:05 PM EST
Nautical Twilight 6:36 AM EST 6:36 PM EST
Astronomical Twilight 6:06 AM EST 7:06 PM EST
Moon 6:14 AM EST (1/10) 4:43 PM EST (1/10)
Length of Visible Light 10h 57m
Length of Day
10h 02m
Waning Crescent, 2% of the Moon is Illuminated
Jan 10
Waning Crescent
Jan 11
New
Jan 18
First Quarter
Jan 26
Full
Feb 3
Last Quarter

Hourly Weather History & Observations

Time (EST) Temp. Windchill Dew Point Humidity Pressure Visibility Wind Dir Wind Speed Gust Speed Precip Events Conditions
12:56 AM 52.0 °F - 48.9 °F 89% 30.44 in 10.0 mi North 3.5 mph - N/A   Clear
1:56 AM 51.1 °F - 48.9 °F 92% 30.44 in 10.0 mi Calm Calm - N/A   Clear
2:56 AM 50.0 °F - 48.0 °F 93% 30.44 in 8.0 mi Calm Calm - N/A   Clear
3:56 AM 48.0 °F - 46.9 °F 96% 30.43 in 5.0 mi Calm Calm - N/A   Clear
4:56 AM 46.9 °F - 46.0 °F 97% 30.43 in 6.0 mi Calm Calm - N/A   Clear
5:56 AM 46.9 °F - 46.0 °F 97% 30.43 in 5.0 mi Calm Calm - N/A   Clear
6:56 AM 46.9 °F - 46.0 °F 97% 30.44 in 5.0 mi Calm Calm - N/A   Clear
7:56 AM 46.0 °F 44.8 °F 45.0 °F 96% 30.46 in 4.0 mi North 3.5 mph - N/A   Clear
8:56 AM 53.1 °F - 50.0 °F 89% 30.48 in 9.0 mi NE 4.6 mph - N/A   Clear
9:56 AM 57.0 °F - 50.0 °F 77% 30.48 in 10.0 mi ENE 3.5 mph - N/A   Clear
10:56 AM 64.0 °F - 51.1 °F 63% 30.47 in 10.0 mi NE 5.8 mph - N/A   Clear
11:56 AM 69.1 °F - 50.0 °F 51% 30.44 in 10.0 mi NE 5.8 mph - N/A   Clear
12:56 PM 70.0 °F - 51.1 °F 51% 30.41 in 10.0 mi Variable 6.9 mph - N/A   Clear
1:56 PM 72.0 °F - 52.0 °F 49% 30.39 in 10.0 mi East 5.8 mph - N/A   Partly Cloudy
2:56 PM 72.0 °F - 52.0 °F 49% 30.37 in 10.0 mi East 5.8 mph - N/A   Mostly Cloudy
3:56 PM 70.0 °F - 52.0 °F 53% 30.37 in 10.0 mi ESE 6.9 mph - N/A   Scattered Clouds
4:56 PM 69.1 °F - 52.0 °F 54% 30.39 in 10.0 mi ESE 6.9 mph - N/A   Overcast
5:56 PM 66.9 °F - 52.0 °F 59% 30.39 in 10.0 mi Calm Calm - N/A   Overcast
6:56 PM 66.0 °F - 53.1 °F 63% 30.39 in 10.0 mi ENE 3.5 mph - N/A   Overcast
7:56 PM 64.9 °F - 54.0 °F 68% 30.38 in 10.0 mi East 3.5 mph - N/A   Overcast
8:56 PM 63.0 °F - 55.0 °F 75% 30.38 in 10.0 mi ESE 6.9 mph 16.1 mph N/A   Overcast
9:56 PM 61.0 °F - 57.0 °F 87% 30.37 in 9.0 mi SE 4.6 mph - 0.01 in   Overcast
10:10 PM 60.8 °F - 57.2 °F 88% 30.37 in 8.0 mi SE 9.2 mph - 0.00 in Rain Light Rain
10:45 PM 59.0 °F - 57.2 °F 94% 30.36 in 6.0 mi ESE 4.6 mph - 0.00 in   Overcast
10:54 PM 59.0 °F - 57.2 °F 94% 30.36 in 5.0 mi ESE 5.8 mph - 0.00 in   Overcast
10:56 PM 59.0 °F - 57.0 °F 93% 30.35 in 5.0 mi ESE 6.9 mph - 0.00 in   Overcast